| time (UTC) | temp F | wind direction | speed knots | gust knots | rain 1hr in | rain 24hr in | rain mn in | humidity % | barometer mb |
| 20260508165458 | 56 | 275 | 10.4 | 18.2 | 0.00 | 0.39 | 0.37 | 83 | 993.6 |
| 20260508164958 | 56 | 275 | 12.2 | 20.0 | 0.00 | 0.39 | 0.37 | 85 | 993.8 |
| 20260508164458 | 56 | 275 | 11.3 | 20.0 | 0.00 | 0.39 | 0.37 | 83 | 994.0 |
| 20260508163958 | 57 | 268 | 8.7 | 18.2 | 0.00 | 0.39 | 0.37 | 82 | 993.7 |
| 20260508163458 | 57 | 258 | 10.4 | 16.5 | 0.00 | 0.39 | 0.37 | 81 | 993.9 |
| 20260508162958 | 57 | 257 | 11.3 | 16.5 | 0.00 | 0.39 | 0.37 | 80 | 993.9 |
| 20260508162458 | 57 | 253 | 13.0 | 20.0 | 0.00 | 0.39 | 0.37 | 80 | 994.1 |
| 20260508161958 | 57 | 251 | 13.0 | 20.0 | 0.00 | 0.39 | 0.37 | 79 | 994.0 |
| 20260508161458 | 57 | 252 | 12.2 | 20.0 | 0.00 | 0.39 | 0.37 | 78 | 994.0 |
| 20260508160958 | 57 | 251 | 11.3 | 20.0 | 0.00 | 0.39 | 0.37 | 77 | 994.0 |
| 20260508160458 | 57 | 250 | 10.4 | 16.5 | 0.00 | 0.39 | 0.37 | 78 | 994.0 |
| 20260508155959 | 57 | 251 | 13.0 | 21.7 | 0.00 | 0.39 | 0.37 | 77 | 994.0 |
| 20260508155458 | 57 | 250 | 13.9 | 21.7 | 0.00 | 0.39 | 0.37 | 76 | 994.0 |
| 20260508154958 | 57 | 250 | 14.8 | 25.2 | 0.00 | 0.39 | 0.37 | 76 | 993.9 |
| 20260508154458 | 57 | 249 | 15.6 | 25.2 | 0.00 | 0.39 | 0.37 | 76 | 993.9 |
| 20260508153958 | 57 | 249 | 13.9 | 20.9 | 0.00 | 0.39 | 0.37 | 76 | 994.0 |
| 20260508153458 | 57 | 250 | 12.2 | 19.1 | 0.00 | 0.39 | 0.37 | 76 | 993.9 |
| 20260508152958 | 57 | 251 | 12.2 | 17.4 | 0.00 | 0.39 | 0.37 | 78 | 994.0 |
| 20260508152458 | 57 | 252 | 11.3 | 17.4 | 0.00 | 0.39 | 0.37 | 80 | 994.1 |
| 20260508151958 | 57 | 250 | 9.6 | 17.4 | 0.00 | 0.39 | 0.37 | 80 | 994.1 |
| 20260508151458 | 57 | 249 | 11.3 | 18.2 | 0.00 | 0.39 | 0.37 | 81 | 994.1 |
| 20260508150958 | 56 | 248 | 11.3 | 18.2 | 0.00 | 0.39 | 0.37 | 82 | 994.2 |
| 20260508145500 | 57 | 249 | 10.4 | 16.5 | 0.00 | 0.39 | 0.37 | 82 | 994.2 |
| 20260508144959 | 57 | 249 | 10.4 | 19.1 | 0.00 | 0.39 | 0.37 | 83 | 994.2 |
| 20260508143959 | 57 | 241 | 13.0 | 22.6 | 0.00 | 0.39 | 0.37 | 81 | 994.0 |
| 20260508143459 | 57 | 242 | 12.2 | 18.2 | 0.00 | 0.39 | 0.37 | 82 | 993.9 |
| 20260508142959 | 56 | 241 | 11.3 | 19.1 | 0.00 | 0.39 | 0.37 | 83 | 993.9 |
| 20260508142459 | 56 | 241 | 10.4 | 19.1 | 0.00 | 0.39 | 0.37 | 82 | 994.0 |
| 20260508141959 | 56 | 244 | 9.6 | 15.6 | 0.00 | 0.39 | 0.37 | 83 | 994.2 |
| 20260508141500 | 56 | 245 | 8.7 | 15.6 | 0.00 | 0.39 | 0.37 | 85 | 994.2 |
| 20260508140959 | 56 | 244 | 7.8 | 13.0 | 0.00 | 0.39 | 0.37 | 87 | 994.1 |
| 20260508140459 | 56 | 244 | 7.8 | 14.8 | 0.00 | 0.39 | 0.37 | 87 | 994.2 |
| 20260508135959 | 55 | 249 | 9.6 | 16.5 | 0.00 | 0.39 | 0.37 | 86 | 994.2 |
| 20260508135459 | 56 | 249 | 10.4 | 16.5 | 0.00 | 0.39 | 0.37 | 86 | 994.3 |
| 20260508134959 | 56 | 248 | 10.4 | 15.6 | 0.00 | 0.39 | 0.37 | 87 | 994.1 |
| 20260508134459 | 55 | 249 | 11.3 | 19.1 | 0.00 | 0.39 | 0.37 | 88 | 994.1 |
| 20260508133959 | 55 | 250 | 12.2 | 19.1 | 0.00 | 0.39 | 0.37 | 90 | 994.2 |
| 20260508133459 | 55 | 248 | 11.3 | 18.2 | 0.00 | 0.39 | 0.37 | 93 | 994.2 |
| 20260508133000 | 54 | 245 | 9.6 | 18.2 | 0.00 | 0.39 | 0.37 | 94 | 994.1 |
| 20260508132459 | 54 | 245 | 8.7 | 15.6 | 0.00 | 0.39 | 0.37 | 95 | 993.9 |
| 20260508131959 | 54 | 246 | 8.7 | 15.6 | 0.00 | 0.39 | 0.37 | 95 | 993.8 |
| 20260508131459 | 54 | 247 | 8.7 | 15.6 | 0.00 | 0.39 | 0.37 | 95 | 993.9 |
| 20260508130959 | 54 | 245 | 9.6 | 14.8 | 0.00 | 0.39 | 0.37 | 95 | 993.8 |
| 20260508130459 | 54 | 244 | 10.4 | 15.6 | 0.00 | 0.39 | 0.37 | 95 | 993.8 |
| 20260508130000 | 54 | 244 | 10.4 | 15.6 | 0.00 | 0.39 | 0.37 | 95 | 993.7 |
| 20260508125459 | 54 | 247 | 10.4 | 17.4 | 0.00 | 0.39 | 0.37 | 95 | 993.6 |
| 20260508124959 | 53 | 247 | 9.6 | 17.4 | 0.00 | 0.39 | 0.37 | 95 | 993.5 |
| 20260508124459 | 53 | 245 | 8.7 | 14.8 | 0.00 | 0.39 | 0.37 | 95 | 993.4 |
| 20260508123959 | 53 | 249 | 7.8 | 13.0 | 0.00 | 0.39 | 0.37 | 95 | 993.3 |
| 20260508123459 | 53 | 252 | 7.8 | 13.0 | 0.00 | 0.39 | 0.37 | 95 | 993.3 |
| 20260508122959 | 53 | 249 | 8.7 | 13.0 | 0.00 | 0.39 | 0.37 | 95 | 993.2 |
| 20260508122459 | 53 | 249 | 8.7 | 13.0 | 0.00 | 0.39 | 0.37 | 95 | 993.2 |
| 20260508121959 | 53 | 249 | 7.8 | 13.0 | 0.01 | 0.39 | 0.37 | 95 | 993.0 |
| 20260508121459 | 53 | 248 | 8.7 | 12.2 | 0.01 | 0.39 | 0.37 | 95 | 993.0 |
| 20260508120959 | 53 | 244 | 7.8 | 13.9 | 0.01 | 0.39 | 0.37 | 95 | 993.2 |
| 20260508120459 | 53 | 242 | 8.7 | 16.5 | 0.01 | 0.39 | 0.37 | 95 | 993.1 |
| 20260508115959 | 53 | 240 | 10.4 | 17.4 | 0.01 | 0.39 | 0.37 | 95 | 993.2 |
| 20260508115459 | 53 | 238 | 10.4 | 17.4 | 0.01 | 0.39 | 0.37 | 95 | 993.0 |
| 20260508114959 | 53 | 238 | 10.4 | 17.4 | 0.02 | 0.39 | 0.37 | 95 | 993.0 |
| 20260508114459 | 53 | 239 | 9.6 | 15.6 | 0.02 | 0.39 | 0.37 | 95 | 993.0 |
| 20260508113959 | 53 | 240 | 8.7 | 15.6 | 0.02 | 0.39 | 0.37 | 95 | 992.9 |
| 20260508113459 | 53 | 234 | 7.8 | 13.0 | 0.03 | 0.39 | 0.37 | 95 | 993.1 |
| 20260508112959 | 53 | 232 | 9.6 | 16.5 | 0.03 | 0.39 | 0.37 | 95 | 993.0 |
| 20260508112459 | 53 | 237 | 7.8 | 16.5 | 0.03 | 0.39 | 0.37 | 95 | 993.0 |
| 20260508111959 | 53 | 242 | 6.1 | 10.4 | 0.02 | 0.39 | 0.36 | 95 | 993.0 |
| 20260508111459 | 53 | 241 | 6.1 | 9.6 | 0.03 | 0.39 | 0.36 | 95 | 993.0 |
| 20260508110959 | 53 | 238 | 6.1 | 9.6 | 0.03 | 0.39 | 0.36 | 95 | 993.0 |
| 20260508110459 | 53 | 238 | 6.1 | 10.4 | 0.03 | 0.39 | 0.36 | 95 | 992.9 |
| 20260508105959 | 53 | 237 | 5.2 | 10.4 | 0.04 | 0.39 | 0.36 | 95 | 992.9 |
| 20260508105459 | 54 | 239 | 4.3 | 7.8 | 0.04 | 0.39 | 0.36 | 95 | 992.9 |
| 20260508104959 | 53 | 238 | 4.3 | 8.7 | 0.04 | 0.38 | 0.35 | 95 | 992.9 |
| 20260508104459 | 53 | 245 | 6.1 | 8.7 | 0.05 | 0.38 | 0.35 | 95 | 992.8 |
| 20260508103959 | 53 | 255 | 5.2 | 8.7 | 0.05 | 0.37 | 0.35 | 95 | 992.8 |
| 20260508103459 | 53 | 255 | 5.2 | 9.6 | 0.04 | 0.36 | 0.34 | 95 | 992.7 |
| 20260508102959 | 53 | 251 | 6.1 | 11.3 | 0.04 | 0.36 | 0.34 | 95 | 992.7 |
| 20260508102459 | 53 | 246 | 5.2 | 11.3 | 0.05 | 0.36 | 0.34 | 95 | 992.7 |
| 20260508101959 | 53 | 251 | 5.2 | 11.3 | 0.05 | 0.36 | 0.34 | 95 | 992.7 |
| 20260508101459 | 53 | 258 | 5.2 | 8.7 | 0.04 | 0.35 | 0.33 | 95 | 992.7 |
| 20260508100959 | 53 | 254 | 5.2 | 9.6 | 0.04 | 0.35 | 0.33 | 95 | 992.7 |
| 20260508100459 | 53 | 250 | 6.1 | 11.3 | 0.05 | 0.35 | 0.33 | 95 | 992.7 |
| 20260508095959 | 53 | 256 | 6.1 | 11.3 | 0.05 | 0.35 | 0.32 | 95 | 992.8 |
| 20260508095459 | 53 | 259 | 6.1 | 8.7 | 0.05 | 0.35 | 0.32 | 95 | 992.6 |
| 20260508094959 | 53 | 258 | 5.2 | 8.7 | 0.05 | 0.34 | 0.31 | 95 | 992.6 |
| 20260508094459 | 53 | 262 | 5.2 | 8.7 | 0.04 | 0.33 | 0.31 | 95 | 992.7 |
| 20260508093959 | 53 | 264 | 6.1 | 9.6 | 0.03 | 0.32 | 0.30 | 95 | 992.6 |
| 20260508093459 | 53 | 267 | 6.1 | 9.6 | 0.04 | 0.32 | 0.30 | 95 | 992.6 |
| 20260508092959 | 53 | 270 | 6.1 | 9.6 | 0.05 | 0.32 | 0.30 | 95 | 992.5 |
| 20260508092459 | 53 | 267 | 6.1 | 9.6 | 0.04 | 0.31 | 0.29 | 95 | 992.6 |
| 20260508091959 | 53 | 265 | 5.2 | 7.8 | 0.04 | 0.31 | 0.29 | 95 | 992.6 |
| 20260508091459 | 53 | 262 | 5.2 | 8.7 | 0.05 | 0.31 | 0.29 | 95 | 992.7 |
| 20260508090959 | 53 | 260 | 6.1 | 9.6 | 0.05 | 0.31 | 0.29 | 95 | 992.6 |
| 20260508090459 | 53 | 258 | 7.0 | 9.6 | 0.05 | 0.31 | 0.28 | 95 | 992.6 |
| 20260508085959 | 53 | 258 | 7.0 | 9.6 | 0.04 | 0.30 | 0.28 | 95 | 992.6 |
| 20260508085459 | 53 | 259 | 6.1 | 8.7 | 0.05 | 0.30 | 0.28 | 95 | 992.6 |
| 20260508084959 | 53 | 259 | 4.3 | 7.8 | 0.04 | 0.29 | 0.27 | 95 | 992.5 |
| 20260508084459 | 53 | 259 | 4.3 | 7.8 | 0.04 | 0.29 | 0.27 | 95 | 992.5 |
| 20260508083959 | 53 | 260 | 5.2 | 8.7 | 0.05 | 0.29 | 0.27 | 95 | 992.6 |
| 20260508083459 | 53 | 262 | 6.1 | 8.7 | 0.04 | 0.28 | 0.26 | 95 | 992.7 |
| 20260508082959 | 53 | 265 | 5.2 | 8.7 | 0.03 | 0.28 | 0.25 | 95 | 992.8 |
| 20260508082459 | 53 | 264 | 4.3 | 7.8 | 0.04 | 0.28 | 0.25 | 95 | 992.8 |
| 20260508081959 | 53 | 263 | 4.3 | 7.0 | 0.04 | 0.28 | 0.25 | 95 | 992.7 |
| 20260508081459 | 53 | 264 | 4.3 | 7.0 | 0.03 | 0.27 | 0.24 | 95 | 992.7 |
| 20260508080959 | 53 | 261 | 4.3 | 7.0 | 0.03 | 0.27 | 0.24 | 95 | 992.8 |
| 20260508080459 | 53 | 259 | 5.2 | 7.8 | 0.03 | 0.26 | 0.24 | 95 | 992.7 |
| 20260508075959 | 53 | 254 | 5.2 | 7.8 | 0.03 | 0.26 | 0.24 | 95 | 992.6 |
| 20260508075459 | 53 | 253 | 5.2 | 9.6 | 0.03 | 0.25 | 0.23 | 95 | 992.6 |
| 20260508074959 | 53 | 254 | 6.1 | 10.4 | 0.04 | 0.25 | 0.23 | 95 | 992.6 |
| 20260508074459 | 53 | 257 | 7.0 | 10.4 | 0.06 | 0.25 | 0.23 | 95 | 992.6 |
| 20260508073959 | 53 | 260 | 7.0 | 10.4 | 0.06 | 0.24 | 0.22 | 95 | 992.6 |
| 20260508073459 | 53 | 261 | 6.1 | 9.6 | 0.06 | 0.24 | 0.22 | 95 | 992.6 |
| 20260508072959 | 53 | 262 | 6.1 | 9.6 | 0.09 | 0.24 | 0.22 | 95 | 992.8 |
| 20260508072500 | 53 | 265 | 6.1 | 8.7 | 0.09 | 0.24 | 0.21 | 95 | 992.9 |
| 20260508071959 | 53 | 267 | 5.2 | 8.7 | 0.10 | 0.24 | 0.21 | 95 | 993.0 |
| 20260508071459 | 53 | 269 | 4.3 | 7.8 | 0.13 | 0.24 | 0.21 | 95 | 993.2 |
| 20260508070959 | 53 | 272 | 4.3 | 9.6 | 0.14 | 0.24 | 0.21 | 95 | 993.3 |
| 20260508070459 | 53 | 277 | 5.2 | 9.6 | 0.15 | 0.23 | 0.20 | 94 | 993.3 |
| 20260508065959 | 53 | 282 | 6.1 | 9.6 | 0.16 | 0.23 | 0.20 | 94 | 993.3 |
| 20260508065459 | 53 | 284 | 6.1 | 9.6 | 0.16 | 0.22 | 0.20 | 94 | 993.4 |
| 20260508064959 | 53 | 283 | 5.2 | 9.6 | 0.15 | 0.21 | 0.19 | 94 | 993.5 |
| 20260508064459 | 53 | 280 | 5.2 | 8.7 | 0.13 | 0.20 | 0.17 | 94 | 993.4 |
| 20260508063959 | 53 | 277 | 5.2 | 8.7 | 0.13 | 0.19 | 0.17 | 94 | 993.4 |
| 20260508063459 | 53 | 273 | 6.1 | 10.4 | 0.13 | 0.18 | 0.16 | 94 | 993.3 |
| 20260508062959 | 53 | 271 | 6.1 | 10.4 | 0.10 | 0.16 | 0.14 | 94 | 993.4 |
| 20260508062459 | 53 | 269 | 6.1 | 11.3 | 0.09 | 0.14 | 0.12 | 94 | 993.6 |
| 20260508061959 | 53 | 268 | 7.0 | 11.3 | 0.08 | 0.13 | 0.11 | 94 | 993.7 |
| 20260508061459 | 53 | 268 | 6.1 | 11.3 | 0.06 | 0.11 | 0.09 | 94 | 993.7 |
| 20260508060959 | 53 | 270 | 5.2 | 9.6 | 0.05 | 0.09 | 0.07 | 94 | 993.7 |
| 20260508060459 | 53 | 272 | 5.2 | 9.6 | 0.03 | 0.08 | 0.06 | 94 | 993.7 |
| 20260508055959 | 53 | 272 | 5.2 | 9.6 | 0.03 | 0.07 | 0.05 | 94 | 993.9 |
| 20260508055459 | 53 | 267 | 6.1 | 12.2 | 0.02 | 0.06 | 0.04 | 94 | 994.0 |
| 20260508055000 | 53 | 263 | 7.0 | 12.2 | 0.02 | 0.06 | 0.04 | 94 | 994.1 |
| 20260508054459 | 53 | 262 | 7.8 | 13.0 | 0.02 | 0.06 | 0.04 | 94 | 994.1 |
| 20260508053959 | 53 | 258 | 8.7 | 13.9 | 0.02 | 0.06 | 0.04 | 93 | 994.1 |
| 20260508053459 | 53 | 259 | 9.6 | 14.8 | 0.02 | 0.06 | 0.03 | 93 | 993.9 |
| 20260508052959 | 53 | 259 | 9.6 | 14.8 | 0.02 | 0.06 | 0.03 | 93 | 993.9 |
| 20260508052459 | 53 | 256 | 10.4 | 17.4 | 0.02 | 0.06 | 0.03 | 93 | 994.0 |
| 20260508051959 | 54 | 258 | 9.6 | 17.4 | 0.02 | 0.06 | 0.03 | 92 | 994.0 |
| 20260508051459 | 54 | 259 | 10.4 | 17.4 | 0.01 | 0.05 | 0.02 | 92 | 994.0 |
| 20260508050959 | 54 | 256 | 12.2 | 17.4 | 0.01 | 0.05 | 0.02 | 92 | 994.0 |
| 20260508050459 | 54 | 255 | 10.4 | 19.1 | 0.01 | 0.05 | 0.02 | 92 | 994.0 |
| 20260508045959 | 55 | 254 | 7.0 | 19.1 | 0.00 | 0.04 | 0.02 | 92 | 994.1 |
| 20260508045459 | 55 | 252 | 4.3 | 7.0 | 0.00 | 0.04 | 0.02 | 93 | 994.1 |
| 20260508044959 | 55 | 253 | 4.3 | 7.0 | 0.01 | 0.04 | 0.02 | 93 | 994.2 |
| 20260508044459 | 55 | 254 | 4.3 | 6.1 | 0.01 | 0.04 | 0.02 | 93 | 994.2 |
| 20260508043959 | 55 | 254 | 4.3 | 7.8 | 0.01 | 0.04 | 0.02 | 93 | 994.3 |
| 20260508043459 | 55 | 254 | 4.3 | 7.8 | 0.01 | 0.04 | 0.02 | 93 | 994.4 |
| 20260508042959 | 55 | 250 | 4.3 | 7.0 | 0.01 | 0.04 | 0.02 | 93 | 994.5 |
| 20260508042459 | 55 | 245 | 4.3 | 7.0 | 0.01 | 0.04 | 0.02 | 93 | 994.4 |
| 20260508041959 | 56 | 240 | 4.3 | 7.8 | 0.02 | 0.04 | 0.02 | 93 | 994.4 |
| 20260508041459 | 56 | 238 | 4.3 | 7.8 | 0.02 | 0.04 | 0.02 | 93 | 994.3 |
| 20260508040959 | 56 | 241 | 3.5 | 6.1 | 0.02 | 0.04 | 0.02 | 93 | 994.4 |
| 20260508040459 | 56 | 244 | 2.6 | 4.3 | 0.02 | 0.04 | 0.02 | 93 | 994.5 |
| 20260508035959 | 56 | 243 | 2.6 | 4.3 | 0.02 | 0.04 | 0.02 | 93 | 994.7 |
| 20260508035459 | 56 | 242 | 3.5 | 7.0 | 0.02 | 0.04 | 0.02 | 93 | 994.8 |
| 20260508034959 | 56 | 246 | 4.3 | 7.0 | 0.02 | 0.03 | 0.01 | 93 | 994.9 |
| 20260508034459 | 56 | 251 | 5.2 | 7.8 | 0.02 | 0.03 | 0.01 | 93 | 995.1 |
| 20260508033959 | 56 | 254 | 4.3 | 7.8 | 0.02 | 0.03 | 0.01 | 93 | 995.2 |
| 20260508033459 | 56 | 258 | 3.5 | 7.8 | 0.02 | 0.03 | 0.01 | 93 | 995.1 |
| 20260508032959 | 56 | 261 | 3.5 | 6.1 | 0.02 | 0.03 | 0.01 | 93 | 995.2 |
| 20260508032459 | 56 | 261 | 3.5 | 6.1 | 0.02 | 0.03 | 0.01 | 92 | 995.2 |
| 20260508031959 | 56 | 256 | 3.5 | 6.1 | 0.02 | 0.02 | 0.00 | 92 | 995.2 |
| 20260508031459 | 56 | 257 | 3.5 | 6.1 | 0.02 | 0.02 | 0.00 | 92 | 995.2 |
| 20260508030959 | 56 | 261 | 3.5 | 5.2 | 0.02 | 0.02 | 0.00 | 92 | 995.5 |
| 20260508025500 | 56 | 255 | 5.2 | 7.8 | 0.01 | 0.02 | 0.02 | 91 | 995.7 |
| 20260508025000 | 56 | 253 | 6.1 | 8.7 | 0.00 | 0.01 | 0.01 | 91 | 995.7 |
| 20260508024500 | 56 | 255 | 6.1 | 8.7 | 0.00 | 0.01 | 0.01 | 90 | 995.6 |
| 20260508024000 | 56 | 256 | 5.2 | 8.7 | 0.00 | 0.02 | 0.01 | 90 | 995.7 |
| 20260508023500 | 56 | 257 | 5.2 | 8.7 | 0.00 | 0.02 | 0.01 | 90 | 995.7 |
| 20260508023000 | 56 | 260 | 4.3 | 7.8 | 0.00 | 0.02 | 0.01 | 90 | 995.7 |
| 20260508022500 | 56 | 259 | 3.5 | 7.0 | 0.00 | 0.03 | 0.01 | 90 | 995.9 |
| 20260508022000 | 56 | 264 | 4.3 | 7.8 | 0.00 | 0.06 | 0.01 | 90 | 995.9 |
| 20260508021500 | 56 | 265 | 5.2 | 7.8 | 0.00 | 0.12 | 0.01 | 90 | 995.9 |
| 20260508021000 | 56 | 264 | 5.2 | 7.8 | 0.00 | 0.13 | 0.01 | 90 | 995.8 |
| 20260508020500 | 56 | 262 | 5.2 | 7.8 | 0.00 | 0.15 | 0.01 | 90 | 995.8 |
| 20260508020000 | 56 | 262 | 5.2 | 8.7 | 0.00 | 0.16 | 0.01 | 90 | 995.8 |
| 20260508015500 | 56 | 261 | 5.2 | 8.7 | 0.00 | 0.17 | 0.01 | 90 | 995.9 |
| 20260508015000 | 56 | 259 | 4.3 | 7.0 | 0.00 | 0.17 | 0.01 | 90 | 996.0 |
| 20260508014500 | 56 | 261 | 4.3 | 7.8 | 0.00 | 0.17 | 0.01 | 89 | 996.1 |
| 20260508014000 | 56 | 259 | 5.2 | 7.8 | 0.00 | 0.17 | 0.01 | 89 | 996.2 |
| 20260508013500 | 56 | 257 | 5.2 | 8.7 | 0.00 | 0.17 | 0.01 | 89 | 996.1 |
| 20260508013000 | 56 | 258 | 5.2 | 9.6 | 0.00 | 0.17 | 0.01 | 89 | 996.2 |
| 20260508012500 | 56 | 257 | 5.2 | 9.6 | 0.00 | 0.17 | 0.01 | 89 | 996.2 |
| 20260508012000 | 56 | 258 | 5.2 | 9.6 | 0.00 | 0.17 | 0.01 | 89 | 996.4 |
| 20260508011500 | 56 | 260 | 5.2 | 7.8 | 0.00 | 0.17 | 0.01 | 89 | 996.5 |
| 20260508011000 | 56 | 262 | 5.2 | 7.8 | 0.00 | 0.17 | 0.01 | 89 | 996.6 |
| 20260508010500 | 56 | 262 | 5.2 | 7.8 | 0.00 | 0.17 | 0.01 | 89 | 996.7 |
| 20260508010000 | 56 | 260 | 4.3 | 7.8 | 0.00 | 0.17 | 0.01 | 89 | 996.8 |
| 20260508005500 | 56 | 259 | 4.3 | 7.8 | 0.00 | 0.17 | 0.01 | 89 | 996.8 |
| 20260508005000 | 56 | 260 | 5.2 | 7.8 | 0.00 | 0.17 | 0.01 | 89 | 996.9 |
| 20260508004500 | 56 | 264 | 4.3 | 7.0 | 0.00 | 0.20 | 0.01 | 89 | 997.0 |
| 20260508004000 | 56 | 266 | 5.2 | 9.6 | 0.00 | 0.24 | 0.01 | 89 | 997.1 |
| 20260508003500 | 56 | 266 | 5.2 | 11.3 | 0.00 | 0.29 | 0.01 | 89 | 997.1 |
| 20260508003000 | 56 | 262 | 5.2 | 11.3 | 0.00 | 0.32 | 0.01 | 89 | 997.1 |
| 20260508002500 | 56 | 261 | 5.2 | 7.8 | 0.00 | 0.35 | 0.01 | 89 | 997.1 |
| 20260508002000 | 56 | 266 | 5.2 | 8.7 | 0.00 | 0.35 | 0.01 | 89 | 997.1 |
| 20260508001500 | 56 | 267 | 5.2 | 8.7 | 0.00 | 0.35 | 0.01 | 89 | 997.3 |
| 20260508001000 | 56 | 264 | 5.2 | 8.7 | 0.00 | 0.35 | 0.01 | 89 | 997.1 |
| 20260508000500 | 56 | 271 | 4.3 | 7.8 | 0.00 | 0.35 | 0.01 | 88 | 996.9 |
| 20260508000000 | 56 | 278 | 3.5 | 7.0 | 0.00 | 0.35 | 0.01 | 88 | 997.0 |
| 20260507235500 | 56 | 274 | 2.6 | 7.0 | 0.00 | 0.35 | 0.01 | 88 | 997.1 |
| 20260507235000 | 56 | 265 | 2.6 | 7.0 | 0.00 | 0.36 | 0.01 | 88 | 997.0 |
| 20260507234500 | 56 | 262 | 4.3 | 7.8 | 0.00 | 0.39 | 0.01 | 88 | 996.7 |
| 20260507234000 | 56 | 259 | 4.3 | 7.8 | 0.00 | 0.48 | 0.01 | 88 | 996.6 |
| 20260507233500 | 56 | 253 | 4.3 | 7.8 | 0.00 | 0.54 | 0.01 | 88 | 996.4 |
| 20260507233000 | 56 | 249 | 5.2 | 9.6 | 0.00 | 0.56 | 0.01 | 87 | 996.3 |
| 20260507232500 | 57 | 250 | 5.2 | 9.6 | 0.00 | 0.57 | 0.01 | 87 | 996.3 |
| 20260507232000 | 57 | 252 | 5.2 | 8.7 | 0.00 | 0.57 | 0.01 | 87 | 996.3 |
| 20260507231500 | 57 | 251 | 5.2 | 7.0 | 0.00 | 0.58 | 0.01 | 87 | 996.5 |
| 20260507231000 | 57 | 244 | 4.3 | 7.0 | 0.00 | 0.63 | 0.01 | 86 | 996.6 |
| 20260507230500 | 57 | 239 | 4.3 | 10.4 | 0.00 | 0.66 | 0.01 | 86 | 996.6 |
| 20260507230000 | 57 | 239 | 5.2 | 10.4 | 0.00 | 0.69 | 0.01 | 86 | 996.6 |
| 20260507225500 | 57 | 242 | 5.2 | 7.0 | 0.00 | 0.74 | 0.01 | 86 | 996.5 |
| 20260507225000 | 57 | 246 | 4.3 | 7.8 | 0.00 | 0.79 | 0.01 | 85 | 996.5 |
| 20260507224500 | 57 | 247 | 4.3 | 8.7 | 0.00 | 0.83 | 0.01 | 85 | 996.6 |
| 20260507224000 | 57 | 248 | 5.2 | 9.6 | 0.00 | 0.89 | 0.01 | 85 | 996.7 |
| 20260507223500 | 57 | 244 | 5.2 | 9.6 | 0.00 | 0.95 | 0.01 | 85 | 996.7 |
| 20260507223000 | 57 | 242 | 7.0 | 13.0 | 0.00 | 1.13 | 0.01 | 85 | 996.5 |
| 20260507222500 | 57 | 243 | 7.8 | 13.9 | 0.00 | 1.24 | 0.01 | 85 | 996.6 |
| 20260507222000 | 57 | 242 | 7.8 | 13.9 | 0.00 | 1.34 | 0.01 | 85 | 996.4 |
| 20260507221500 | 57 | 241 | 7.8 | 13.0 | 0.00 | 1.37 | 0.01 | 85 | 996.3 |
| 20260507221000 | 57 | 238 | 7.8 | 13.0 | 0.00 | 1.41 | 0.01 | 85 | 996.0 |
| 20260507220500 | 57 | 239 | 7.8 | 13.9 | 0.00 | 1.42 | 0.01 | 85 | 996.2 |
| 20260507220000 | 57 | 237 | 7.8 | 13.9 | 0.00 | 1.43 | 0.01 | 85 | 996.2 |
| 20260507215500 | 57 | 233 | 7.8 | 14.8 | 0.00 | 1.46 | 0.01 | 85 | 996.0 |
| 20260507215000 | 58 | 234 | 8.7 | 14.8 | 0.00 | 1.49 | 0.01 | 85 | 995.9 |
| 20260507214500 | 58 | 236 | 8.7 | 16.5 | 0.00 | 1.51 | 0.01 | 85 | 995.9 |
| 20260507214000 | 57 | 236 | 9.6 | 16.5 | 0.00 | 1.53 | 0.01 | 85 | 995.9 |
| 20260507213500 | 57 | 230 | 9.6 | 15.6 | 0.00 | 1.53 | 0.01 | 85 | 995.9 |
| 20260507213000 | 58 | 226 | 9.6 | 16.5 | 0.00 | 1.54 | 0.01 | 85 | 995.7 |
| 20260507212500 | 58 | 226 | 8.7 | 16.5 | 0.00 | 1.60 | 0.01 | 85 | 995.5 |
| 20260507212000 | 57 | 226 | 7.8 | 15.6 | 0.00 | 1.61 | 0.01 | 85 | 995.3 |
| 20260507211500 | 58 | 229 | 7.8 | 15.6 | 0.00 | 1.62 | 0.01 | 86 | 995.2 |
| 20260507211000 | 58 | 231 | 8.7 | 15.6 | 0.00 | 1.64 | 0.01 | 86 | 995.5 |
| 20260507210500 | 58 | 231 | 7.8 | 15.6 | 0.00 | 1.65 | 0.01 | 86 | 995.7 |
| 20260507210000 | 58 | 231 | 7.0 | 12.2 | 0.00 | 1.68 | 0.01 | 87 | 995.9 |
| 20260507205500 | 58 | 236 | 9.6 | 14.8 | 0.00 | 1.73 | 0.01 | 87 | 996.3 |
| 20260507205000 | 58 | 237 | 9.6 | 15.6 | 0.00 | 1.77 | 0.01 | 87 | 996.2 |
| 20260507204500 | 58 | 238 | 8.7 | 15.6 | 0.00 | 1.89 | 0.01 | 87 | 996.2 |
| 20260507204000 | 58 | 240 | 9.6 | 13.9 | 0.00 | 1.89 | 0.01 | 87 | 996.4 |
| 20260507203500 | 58 | 239 | 10.4 | 17.4 | 0.00 | 1.90 | 0.01 | 87 | 996.8 |
| 20260507203000 | 58 | 240 | 10.4 | 17.4 | 0.00 | 1.90 | 0.01 | 87 | 996.9 |
| 20260507202500 | 58 | 244 | 11.3 | 18.2 | 0.00 | 1.91 | 0.01 | 87 | 997.0 |
| 20260507202000 | 58 | 245 | 11.3 | 18.2 | 0.00 | 1.93 | 0.01 | 87 | 997.2 |
| 20260507201500 | 58 | 243 | 10.4 | 16.5 | 0.00 | 1.93 | 0.01 | 88 | 997.3 |
| 20260507201000 | 58 | 238 | 10.4 | 18.2 | 0.00 | 1.93 | 0.01 | 88 | 997.3 |
| 20260507200500 | 58 | 239 | 9.6 | 18.2 | 0.00 | 1.93 | 0.01 | 88 | 997.2 |
| 20260507200000 | 58 | 241 | 8.7 | 16.5 | 0.00 | 1.93 | 0.01 | 89 | 997.4 |
| 20260507195500 | 58 | 239 | 9.6 | 15.6 | 0.00 | 1.93 | 0.01 | 90 | 997.5 |
| 20260507195000 | 58 | 235 | 10.4 | 17.4 | 0.00 | 1.93 | 0.01 | 90 | 997.5 |
| 20260507194500 | 58 | 234 | 9.6 | 17.4 | 0.00 | 1.93 | 0.01 | 90 | 997.5 |
| 20260507194000 | 58 | 236 | 8.7 | 13.9 | 0.00 | 1.93 | 0.01 | 90 | 997.3 |
| 20260507193500 | 58 | 237 | 8.7 | 14.8 | 0.00 | 1.94 | 0.01 | 91 | 997.4 |
| 20260507193000 | 58 | 238 | 8.7 | 14.8 | 0.00 | 1.94 | 0.01 | 91 | 997.6 |
| 20260507192500 | 58 | 239 | 8.7 | 15.6 | 0.00 | 1.96 | 0.01 | 92 | 997.4 |
| 20260507192000 | 58 | 239 | 9.6 | 15.6 | 0.00 | 2.07 | 0.01 | 92 | 997.3 |
| 20260507191500 | 58 | 242 | 8.7 | 14.8 | 0.00 | 2.14 | 0.01 | 93 | 997.4 |
| 20260507191000 | 58 | 246 | 8.7 | 13.9 | 0.00 | 2.17 | 0.01 | 93 | 997.6 |
| 20260507190500 | 58 | 246 | 9.6 | 13.9 | 0.00 | 2.19 | 0.01 | 93 | 997.5 |
| 20260507190000 | 58 | 242 | 9.6 | 16.5 | 0.00 | 2.25 | 0.01 | 93 | 997.4 |
| 20260507185500 | 58 | 238 | 9.6 | 16.5 | 0.00 | 2.26 | 0.01 | 93 | 997.4 |
| 20260507185000 | 58 | 239 | 10.4 | 14.8 | 0.00 | 2.26 | 0.01 | 93 | 997.3 |
| 20260507184500 | 58 | 241 | 10.4 | 15.6 | 0.00 | 2.26 | 0.01 | 93 | 997.2 |
| 20260507184000 | 58 | 237 | 9.6 | 15.6 | 0.00 | 2.26 | 0.01 | 93 | 997.3 |
| 20260507183500 | 58 | 235 | 7.8 | 13.9 | 0.00 | 2.26 | 0.01 | 93 | 997.2 |
| 20260507183000 | 58 | 241 | 8.7 | 16.5 | 0.00 | 2.26 | 0.01 | 93 | 997.2 |
| 20260507182500 | 58 | 242 | 10.4 | 18.2 | 0.00 | 2.26 | 0.01 | 93 | 997.2 |
| 20260507181959 | 58 | 241 | 11.3 | 18.2 | 0.00 | 2.26 | 0.01 | 93 | 997.3 |
| 20260507181500 | 58 | 240 | 10.4 | 17.4 | 0.00 | 2.26 | 0.01 | 93 | 997.1 |
| 20260507180959 | 58 | 241 | 8.7 | 17.4 | 0.00 | 2.26 | 0.01 | 93 | 997.2 |
| 20260507180459 | 59 | 247 | 7.8 | 14.8 | 0.00 | 2.26 | 0.01 | 94 | 997.2 |
| 20260507180000 | 58 | 244 | 7.8 | 14.8 | 0.00 | 2.26 | 0.01 | 94 | 997.4 |
| 20260507175459 | 58 | 237 | 7.8 | 13.9 | 0.00 | 2.26 | 0.01 | 94 | 997.4 |
| 20260507175000 | 58 | 234 | 7.8 | 13.9 | 0.00 | 2.26 | 0.01 | 94 | 997.4 |
| 20260507174500 | 58 | 228 | 6.1 | 13.0 | 0.00 | 2.26 | 0.01 | 94 | 997.4 |
| 20260507173959 | 58 | 228 | 7.0 | 13.9 | 0.00 | 2.26 | 0.01 | 94 | 997.1 |
| 20260507173500 | 58 | 231 | 7.8 | 13.9 | 0.00 | 2.26 | 0.01 | 94 | 997.0 |
| 20260507173000 | 58 | 229 | 7.8 | 11.3 | 0.00 | 2.26 | 0.01 | 94 | 996.9 |
| 20260507172500 | 58 | 235 | 7.8 | 13.9 | 0.00 | 2.26 | 0.01 | 94 | 997.0 |
| 20260507172000 | 58 | 239 | 7.0 | 13.9 | 0.00 | 2.27 | 0.01 | 94 | 996.9 |
| 20260507171500 | 58 | 237 | 7.0 | 13.0 | 0.00 | 2.27 | 0.01 | 94 | 996.8 |
| 20260507171000 | 58 | 239 | 7.8 | 13.0 | 0.00 | 2.27 | 0.01 | 94 | 996.8 |
| 20260507170500 | 58 | 244 | 7.8 | 12.2 | 0.00 | 2.28 | 0.01 | 94 | 996.9 |
| 20260507170000 | 58 | 242 | 7.8 | 12.2 | 0.00 | 2.31 | 0.01 | 94 | 997.0 |